User: anonymous
Location: Potawatomi Wildlife Park
(41.2308°N, 86.1050°W)
Time: 03:40:38
(UTC-04:00)
Language:

SL-16 R/B - Orbit

View from above orbital plane
View from above orbital plane
View from above satellite
View from above satellite

Ground track
Ground track

The orbit data is extracted from the following two-line orbital elements,

1 27006U 01056F   14112.58669560 -.00000006  00000-0  39560-4 0  1111
2 27006 099.1602 283.0929 0015491 079.7222 323.1664 13.70915757618708
Epoch (UTC): 22 April 2014 14:04:50
Eccentricity: 0.0015491
inclination: 99.1602°
perigee height: 985 km
apogee height: 1008 km
right ascension of ascending node: 283.0929°
argument of perigee: 79.7222°
revolutions per day: 13.70915757
mean anomaly at epoch: 323.1664°
orbit number at epoch: 61870

The dashed part of the orbit path shows where the satellite is in the earth's shadow,  

DLR